Weather History for Blythe, CA

Change the Weather History Date:

Saturday, May 11, 2013

  Actual Average Record
Temperature  
Mean Temperature 84 °F -  
Max Temperature 100 °F 93 °F 108 °F (1996)
Min Temperature 69 °F 62 °F 51 °F (1991)
Cooling Degree Days 19    
Growing Degree Days 34 (Base 50)    
Moisture  
Dew Point 36 °F    
Average Humidity 18    
Maximum Humidity 36    
Minimum Humidity 10    
Precipitation  
Precipitation 0.00 in - - ()
Sea Level Pressure  
Sea Level Pressure 29.95 in    
Wind  
Wind Speed 7 mph (NNE)    
Max Wind Speed 15 mph    
Max Gust Speed 20 mph    
Visibility 10 miles    
Events      
Averages and records for this station are not official NWS values.
T = Trace of Precipitation, MM = Missing Value Source: NWS Daily Summary

Daily Weather History Graph

Daily Weather History Graph

Search for Another Location

Airport:

Trip Planner

Search our weather history database for the weather conditions in past years. The results will help you decide how hot, cold, wet, or windy it might be!

Date:

Astronomy

May. 11, 2013 Rise Set
Actual Time 5:41 AM PDT 7:29 PM PDT
Civil Twilight 5:13 AM PDT 7:57 PM PDT
Nautical Twilight 4:40 AM PDT 8:30 PM PDT
Astronomical Twilight 4:06 AM PDT 9:05 PM PDT
Moon 6:53 AM PDT (5/11) 9:11 PM PDT (5/11)
Length of Visible Light 14h 43m
Length of Day
13h 48m
Waxing Crescent, 3% of the Moon is Illuminated
May 11
Waxing Crescent
May 17
First Quarter
May 24
Full
May 31
Last Quarter
Jun 8
New

Hourly Weather History & Observations

Time (PDT) Temp. Dew Point Humidity Pressure Visibility Wind Dir Wind Speed Gust Speed Precip Events Conditions
12:52 AM 78.1 °F 39.0 °F 25% 29.94 in 10.0 mi WNW 5.8 mph - N/A   Clear
1:52 AM 73.9 °F 37.9 °F 27% 29.94 in 10.0 mi East 6.9 mph - N/A   Clear
2:52 AM 70.0 °F 42.1 °F 36% 29.94 in 10.0 mi Calm Calm - N/A   Clear
3:52 AM 69.1 °F 39.0 °F 33% 29.94 in 10.0 mi NNE 5.8 mph - N/A   Clear
4:52 AM 69.1 °F 39.0 °F 33% 29.95 in 10.0 mi North 5.8 mph - N/A   Clear
5:52 AM 69.1 °F 37.0 °F 31% 29.96 in 10.0 mi NNW 8.1 mph - N/A   Clear
6:52 AM 75.0 °F 37.0 °F 25% 29.98 in 10.0 mi NNW 6.9 mph - N/A   Clear
7:52 AM 84.9 °F 37.0 °F 18% 29.99 in 10.0 mi North 9.2 mph - N/A   Clear
8:52 AM 89.1 °F 36.0 °F 15% 30.00 in 10.0 mi NE 15.0 mph - N/A   Clear
9:52 AM 91.0 °F 36.0 °F 14% 30.00 in 10.0 mi ENE 13.8 mph 19.6 mph N/A   Clear
10:52 AM 93.0 °F 36.0 °F 13% 30.01 in 10.0 mi ENE 13.8 mph 18.4 mph N/A   Clear
11:52 AM 95.0 °F 36.0 °F 13% 30.00 in 10.0 mi East 9.2 mph - N/A   Clear
12:52 PM 96.1 °F 35.1 °F 12% 29.99 in 10.0 mi East 8.1 mph 19.6 mph N/A   Clear
1:52 PM 96.1 °F 35.1 °F 12% 29.97 in 10.0 mi SE 9.2 mph 18.4 mph N/A   Clear
2:52 PM 99.0 °F 34.0 °F 10% 29.94 in 10.0 mi NNE 9.2 mph - N/A   Clear
3:52 PM 98.1 °F 33.1 °F 10% 29.92 in 10.0 mi East 4.6 mph 19.6 mph N/A   Clear
4:52 PM 97.0 °F 33.1 °F 11% 29.91 in 10.0 mi Calm Calm - N/A   Clear
5:52 PM 99.0 °F 33.1 °F 10% 29.90 in 10.0 mi North 3.5 mph - N/A   Clear
6:52 PM 97.0 °F 33.1 °F 11% 29.90 in 10.0 mi ENE 3.5 mph - N/A   Clear
7:52 PM 93.0 °F 32.0 °F 12% 29.91 in 10.0 mi WNW 3.5 mph - N/A   Clear
8:52 PM 88.0 °F 30.9 °F 13% 29.92 in 10.0 mi WNW 5.8 mph - N/A   Clear
10:52 PM 86.0 °F 32.0 °F 14% 29.95 in 10.0 mi West 6.9 mph - N/A   Clear
11:52 PM 81.0 °F 37.0 °F 21% 29.96 in 10.0 mi Calm Calm - N/A   Clear